Change the Weather History Date:

Friday, August 23, 2013

  Actual Average Record
Temperature  
Mean Temperature 72 °F -  
Max Temperature 77 °F 66 °F 80 °F (2003)
Min Temperature 66 °F 56 °F 35 °F (2001)
Cooling Degree Days 6    
Growing Degree Days 22 (Base 50)    
Moisture  
Dew Point 57 °F    
Average Humidity 60    
Maximum Humidity 78    
Minimum Humidity 44    
Precipitation  
Precipitation 0.00 in - - ()
Sea Level Pressure  
Sea Level Pressure 29.92 in    
Wind  
Wind Speed 4 mph ()    
Max Wind Speed 9 mph    
Max Gust Speed -    
Visibility 6.2 miles    
Events      
Averages and records for this station are not official NWS values.
T = Trace of Precipitation, MM = Missing Value Source: Averaged Metar Reports

Daily Weather History Graph

Daily Weather History Graph

Search for Another Location

Airport or City:

Trip Planner

Search our weather history database for the weather conditions in past years. The results will help you decide how hot, cold, wet, or windy it might be!

Date:

Astronomy

Aug. 23, 2013 Rise Set
Actual Time 6:06 AM BST 8:15 PM BST
Civil Twilight 5:29 AM BST 8:51 PM BST
Nautical Twilight 4:43 AM BST 9:37 PM BST
Astronomical Twilight 3:50 AM BST 10:29 PM BST
Moon 8:54 PM BST (8/23) 9:12 AM BST (8/23)
Length of Visible Light 15h 22m
Length of Day
14h 09m
Waning Gibbous, 93% of the Moon is Illuminated
Aug 23
Waning Gibbous
Aug 28
Last Quarter
Sep 5
New
Sep 12
First Quarter
Sep 19
Full

Hourly Weather History & Observations

Time (BST) Temp. Dew Point Humidity Pressure Visibility Wind Dir Wind Speed Gust Speed Precip Events Conditions
8:20 AM 66.2 °F 57.2 °F 73% 29.95 in 6.2 mi SE 4.6 mph - N/A   Partly Cloudy
8:50 AM 66.2 °F 57.2 °F 73% 29.95 in 6.2 mi SSE 4.6 mph - N/A   Partly Cloudy
9:20 AM 68.0 °F 57.2 °F 68% 29.95 in 6.2 mi SSE 3.5 mph - N/A   Partly Cloudy
9:50 AM 68.0 °F 57.2 °F 68% 29.95 in 6.2 mi SSE 3.5 mph - N/A   Partly Cloudy
10:20 AM 71.6 °F 57.2 °F 60% 29.95 in 6.2 mi South 5.8 mph - N/A   Partly Cloudy
10:50 AM 71.6 °F 59.0 °F 64% 29.95 in - SSW 6.9 mph - N/A   Clear
11:20 AM 71.6 °F 57.2 °F 60% 29.95 in - South 5.8 mph - N/A   Clear
11:50 AM 73.4 °F 57.2 °F 57% 29.95 in - South 5.8 mph - N/A   Clear
12:20 PM 75.2 °F 57.2 °F 53% 29.92 in - South 6.9 mph - N/A   Clear
12:50 PM 75.2 °F 59.0 °F 57% 29.92 in - South 3.5 mph - N/A   Clear
1:20 PM 77.0 °F 57.2 °F 50% 29.92 in - SSE 6.9 mph - N/A   Clear
1:50 PM 77.0 °F 55.4 °F 47% 29.92 in - SE 9.2 mph - N/A   Clear
2:20 PM 77.0 °F 55.4 °F 47% 29.92 in 6.2 mi SSE 5.8 mph - N/A   Partly Cloudy
2:50 PM 77.0 °F 53.6 °F 44% 29.92 in 6.2 mi South 5.8 mph - N/A   Partly Cloudy
3:20 PM 77.0 °F 55.4 °F 47% 29.89 in 6.2 mi South 3.5 mph - N/A   Partly Cloudy
3:50 PM 77.0 °F 53.6 °F 44% 29.89 in 6.2 mi South 3.5 mph - N/A   Partly Cloudy
4:20 PM 77.0 °F 53.6 °F 44% 29.89 in 6.2 mi SE 4.6 mph - N/A   Partly Cloudy
4:50 PM 75.2 °F 53.6 °F 47% 29.89 in 6.2 mi SE 2.3 mph - N/A   Partly Cloudy
5:20 PM 71.6 °F 60.8 °F 69% 29.89 in 6.2 mi NW 3.5 mph - N/A   Partly Cloudy
5:50 PM 71.6 °F 60.8 °F 69% 29.89 in 6.2 mi NNW 2.3 mph - N/A   Partly Cloudy
6:20 PM 69.8 °F 62.6 °F 78% 29.89 in 6.2 mi West 8.1 mph - N/A   Partly Cloudy
6:50 PM 68.0 °F 60.8 °F 78% 29.89 in 6.2 mi West 3.5 mph - N/A   Partly Cloudy
7:20 PM 68.0 °F 60.8 °F 78% 29.89 in 6.2 mi Calm Calm - N/A   Partly Cloudy